Regional Weather Roundup
Issued by NWS

Home | Current Version | Previous Version | Graphics & Text | Print | Product List | Glossary On
Versions: 1 2 3 4 5 6 7 8 9 10 11 12 13 14 15 16 17 18 19 20 21 22 23 24 25 26 27 28 29 30 31 32 33 34 35 36 37 38 39 40 41 42 43 44 45 46 47 48 49 50
000
ASUS43 KOAX 292010
RWRNE

WEATHER ROUNDUP FOR NEBRASKA
NATIONAL WEATHER SERVICE OMAHA NE
300 PM CDT SUN MAY 29 2016

NOTES: SATELLITE DATA IS BEING USED TO AUGMENT CLOUD COVER ABOVE
       12000 FEET.
       "FAIR" INDICATES FEW OR NO CLOUDS BELOW 12,000 FEET WITH NO
       SIGNIFICANT WEATHER AND/OR OBSTRUCTIONS TO VISIBILITY.

  * THESE STATIONS DO NOT REPORT WEATHER SUCH AS RAIN...SNOW OR FOG.

NEZ001>004-019>022-054>056-292100-
NEBRASKA PANHANDLE

CITY           SKY/WX    TMP DP  RH WIND       PRES   REMARKS
SCOTTSBLUFF    SUNNY     76  42  29 S7        30.07F
ALLIANCE       SUNNY     76  43  30 W5        30.05F
CHADRON        SUNNY     79  43  27 VRB6      30.02F
KIMBALL        MOSUNNY   75  44  33 SW5G16    30.11F
SIDNEY         SUNNY     79  41  25 VRB6      30.09F
$$

NEZ057>060-069>072-079>082-292100-
SOUTHWEST NEBRASKA

CITY           SKY/WX    TMP DP  RH WIND       PRES   REMARKS
NORTH PLATTE   SUNNY     81  57  43 SE7       30.04F
IMPERIAL       SUNNY     80  53  39 S10       30.05F
LEXINGTON      SUNNY     80  58  47 SE7       30.06S
MCCOOK         MOSUNNY   84  56  38 VRB7      30.02F
OGALLALA       SUNNY     79  47  32 SW5       30.05F
$$

NEZ005>010-023>029-035>040-094-292100-
NORTH CENTRAL NEBRASKA

CITY           SKY/WX    TMP DP  RH WIND       PRES   REMARKS
VALENTINE      SUNNY     77  50  38 SE10      30.05F
AINSWORTH      SUNNY     76  51  42 S5        30.07F
BROKEN BOW     SUNNY     78  57  48 SE7       30.06F
O`NEILL        SUNNY     77  54  44 S5        30.07F
ORD            SUNNY     80  51  36 CALM      30.05F
THEDFORD       SUNNY     81  51  35 SE3       30.05F
$$

NEZ041-046>049-061>064-073>077-083>087-292100-
SOUTH CENTRAL NEBRASKA

CITY           SKY/WX    TMP DP  RH WIND       PRES   REMARKS
GRAND ISLAND   SUNNY     80  53  39 VRB3      30.06F
AURORA         SUNNY     81  52  37 CALM      30.06F
HASTINGS       MOSUNNY   84  57  39 VRB3      30.05F
HEBRON         SUNNY     83  58  41 SW8       30.05F
HOLDREGE       SUNNY     82  53  36 S9        30.05F
KEARNEY *      SUNNY     82  54  36 W3        30.06F
YORK           SUNNY     81  55  41 CALM      30.07F
$$

NEZ011>018-030>034-042>045-292100-
NORTHEAST NEBRASKA

CITY           SKY/WX    TMP DP  RH WIND       PRES   REMARKS
NORFOLK        SUNNY     78  55  44 VRB3      30.06F
ALBION         SUNNY     78  55  43 NE5       30.06F
BLAIR          SUNNY     81  59  47 NW3       30.06F
FREMONT        SUNNY     81  60  49 NW5       30.06F
TEKAMAH          N/A    N/A N/A N/A MISG      30.04F
WAYNE          MOSUNNY   79  57  47 N3        30.07F
$$

NEZ050>053-065>068-078-088>093-292100-
SOUTHEAST NEBRASKA

CITY           SKY/WX    TMP DP  RH WIND       PRES   REMARKS
LINCOLN        SUNNY     85  56  37 W9        30.05F
OMAHA EPPLEY   MOSUNNY   83  56  39 W7        30.04F
BEATRICE       SUNNY     84  58  41 W10       30.06F
FALLS CITY     SUNNY     84  61  45 SW12      30.06F
NEBRASKA CITY  MOSUNNY   83  54  36 W13       30.06S
PLATTSMOUTH    SUNNY     84  56  37 CALM      30.05F
$$

NEZ044-045-051>053-067-292100-
OMAHA AREA

CITY           SKY/WX    TMP DP  RH WIND       PRES   REMARKS
OMAHA EPPLEY   MOSUNNY   83  56  39 W7        30.04F
BLAIR          SUNNY     81  59  47 NW3       30.06F
FREMONT        SUNNY     81  60  49 NW5       30.06F
MILLARD        SUNNY     82  57  41 CALM      30.05F
OFFUTT AFB     SUNNY     82  58  43 VRB1      30.04F
PLATTSMOUTH    SUNNY     84  56  37 CALM      30.05F
WAHOO          FAIR      83  53  34 CALM      30.05F
$$



USA.gov is the U.S. government's official web portal to all federal, state and local government web resources and services.